Location: Cactus School
(34.5700°N, 118.0931°W)
Time: 08:18:16
(UTC-07:00)

S-56A Canister/Altair - Pass Details

Date: 22 April 2024
Orbit: 638 x 2488 km, 38.9° (Epoch: 29 May)

Event Time Altitude Azimuth Distance (km) Brightness Sun altitude
Rises 14:33:03 0° 200° (SSW) 2,938 10.9 58.1°
Reaches altitude 10° 14:36:08 10° 177° (S) 2,010 10.1 57.6°
Maximum altitude 14:38:50 16° 139° (SE) 1,701 9.5 57.1°
Drops below altitude 10° 14:41:43 10° 102° (ESE) 2,157 9.7 56.6°
Sets 14:45:12 0° 80° (E) 3,277 10.5 56.0°
